When you browse on this site, cookies collect data to enhance your experience and personalize the content and advertising you see.
Visit our Privacy Policy to learn more. By continuing to use the site, you agree to this use of cookies and data.
  • In Spain
  • List of Countries
  • For 7 days
  • Water Temperature
  • Weather Map
  • Weather Widgets
  • user-avatar
    Login

    Hourly Weather Kielce

    Today, 4 June, Thursday

    Time Temperature Precipitation Wind Pressure Humidity
    00:00 +8°C° 0 mm 1 mps 724 mmHg 91%
    01:00 +8°C° 0 mm 1 mps 724 mmHg 91%
    02:00 +8°C° 0 mm 1 mps 724 mmHg 91%
    03:00 +8°C° 0 mm 1 mps 724 mmHg 91%
    04:00 +8°C° 0 mm 1 mps 723 mmHg 92%
    05:00 +10°C° 0 mm 1 mps 723 mmHg 85%
    06:00 +12°C° 0 mm 1 mps 723 mmHg 79%
    07:00 +14°C° 0 mm 1 mps 723 mmHg 72%
    08:00 +16°C° 0 mm 1 mps 723 mmHg 66%
    09:00 +18°C° 0 mm 1 mps 723 mmHg 60%
    10:00 +19°C° 0 mm 1 mps 723 mmHg 53%
    11:00 +20°C° 0 mm 1 mps 722 mmHg 51%
    12:00 +20°C° 0 mm 1 mps 722 mmHg 49%
    13:00 +20°C° 0 mm 2 mps 722 mmHg 47%
    14:00 +20°C° 0 mm 2 mps 722 mmHg 48%
    15:00 +20°C° 0 mm 2 mps 721 mmHg 49%
    16:00 +20°C° 0 mm 2 mps 721 mmHg 50%
    17:00 +18°C° 0 mm 2 mps 721 mmHg 58%
    18:00 +17°C° 0 mm 2 mps 721 mmHg 65%
    19:00 +16°C° 0 mm 2 mps 720 mmHg 72%
    20:00 +14°C° 0 mm 3 mps 720 mmHg 72%
    21:00 +13°C° 0 mm 3 mps 720 mmHg 71%
    22:00 +12°C° 0 mm 3 mps 720 mmHg 70%
    23:00 +12°C° 0 mm 3 mps 720 mmHg 75%

    Tomorrow, 5 June, Friday

    Time Temperature Precipitation Wind Pressure Humidity
    00:00 +12°C° 0 mm 3 mps 719 mmHg 80%
    01:00 +12°C° 0 mm 3 mps 719 mmHg 85%
    02:00 +12°C° 0 mm 3 mps 719 mmHg 88%
    03:00 +12°C° 0 mm 3 mps 718 mmHg 91%
    04:00 +12°C° 0 mm 3 mps 718 mmHg 94%
    05:00 +14°C° 0 mm 3 mps 718 mmHg 87%
    06:00 +15°C° 0 mm 4 mps 718 mmHg 80%
    07:00 +18°C° 0 mm 4 mps 718 mmHg 73%
    08:00 +18°C° 0 mm 4 mps 719 mmHg 73%
    09:00 +19°C° 0 mm 4 mps 719 mmHg 74%
    10:00 +19°C° 0 mm 4 mps 719 mmHg 75%
    11:00 +19°C° 0.2 mm 4 mps 719 mmHg 75%
    12:00 +19°C° 0.2 mm 4 mps 720 mmHg 76%
    13:00 +19°C° 0.2 mm 4 mps 720 mmHg 76%
    14:00 +19°C° 0.3 mm 4 mps 720 mmHg 78%
    15:00 +18°C° 0.3 mm 4 mps 721 mmHg 80%
    16:00 +18°C° 0.3 mm 4 mps 721 mmHg 82%
    17:00 +17°C° 0.1 mm 3 mps 721 mmHg 85%
    18:00 +16°C° 0.1 mm 2 mps 721 mmHg 88%
    19:00 +15°C° 0.1 mm 1 mps 721 mmHg 91%
    20:00 +15°C° 1.4 mm 1 mps 721 mmHg 93%
    21:00 +14°C° 1.4 mm 2 mps 722 mmHg 95%
    22:00 +14°C° 1.4 mm 2 mps 722 mmHg 98%
    23:00 +13°C° 0 mm 2 mps 723 mmHg 96%

    Day after tomorrow, 6 June, Saturday

    Time Temperature Precipitation Wind Pressure Humidity
    00:00 +12°C° 0 mm 3 mps 723 mmHg 95%
    01:00 +11°C° 0 mm 3 mps 723 mmHg 94%
    02:00 +11°C° 0 mm 3 mps 724 mmHg 93%
    03:00 +11°C° 0 mm 4 mps 724 mmHg 93%
    04:00 +11°C° 0 mm 4 mps 725 mmHg 92%
    05:00 +12°C° 0 mm 5 mps 726 mmHg 86%
    06:00 +13°C° 0 mm 5 mps 726 mmHg 80%
    07:00 +15°C° 0 mm 6 mps 727 mmHg 74%
    08:00 +16°C° 0 mm 6 mps 727 mmHg 68%
    09:00 +19°C° 0 mm 6 mps 727 mmHg 62%
    10:00 +20°C° 0 mm 6 mps 728 mmHg 56%
    11:00 +21°C° 0 mm 6 mps 728 mmHg 55%
    12:00 +21°C° 0 mm 6 mps 728 mmHg 54%
    13:00 +22°C° 0 mm 5 mps 728 mmHg 52%
    14:00 +22°C° 0 mm 4 mps 728 mmHg 55%
    15:00 +22°C° 0 mm 3 mps 728 mmHg 57%
    16:00 +23°C° 0 mm 2 mps 728 mmHg 59%
    17:00 +21°C° 0.2 mm 2 mps 728 mmHg 65%
    18:00 +19°C° 0.2 mm 2 mps 728 mmHg 72%
    19:00 +19°C° 0.2 mm 1 mps 728 mmHg 79%
    20:00 +17°C° 0 mm 2 mps 728 mmHg 83%
    21:00 +16°C° 0 mm 2 mps 728 mmHg 87%
    22:00 +15°C° 0 mm 2 mps 728 mmHg 91%
    23:00 +15°C° 0 mm 2 mps 728 mmHg 93%

    7 June, Sunday

    Time Temperature Precipitation Wind Pressure Humidity
    00:00 +15°C° 0 mm 2 mps 728 mmHg 94%
    01:00 +14°C° 0 mm 2 mps 728 mmHg 96%
    02:00 +14°C° 0 mm 2 mps 728 mmHg 96%
    03:00 +14°C° 0 mm 2 mps 727 mmHg 96%
    04:00 +14°C° 0 mm 1 mps 727 mmHg 97%
    05:00 +15°C° 0 mm 2 mps 727 mmHg 93%
    06:00 +17°C° 0 mm 2 mps 727 mmHg 90%
    07:00 +18°C° 0 mm 2 mps 728 mmHg 87%
    08:00 +19°C° 0 mm 2 mps 728 mmHg 81%
    09:00 +21°C° 0 mm 2 mps 728 mmHg 75%
    10:00 +23°C° 0 mm 2 mps 728 mmHg 70%
    11:00 +23°C° 0.2 mm 2 mps 729 mmHg 68%
    12:00 +24°C° 0.2 mm 2 mps 729 mmHg 66%
    13:00 +25°C° 0.2 mm 2 mps 729 mmHg 64%
    14:00 +24°C° 0.7 mm 2 mps 729 mmHg 70%
    15:00 +23°C° 0.7 mm 2 mps 729 mmHg 75%
    16:00 +21°C° 0.7 mm 2 mps 728 mmHg 81%
    17:00 +21°C° 0.2 mm 2 mps 729 mmHg 84%
    18:00 +21°C° 0.2 mm 1 mps 729 mmHg 87%
    19:00 +20°C° 0.2 mm 1 mps 729 mmHg 90%
    20:00 +19°C° 0.5 mm 1 mps 729 mmHg 92%
    21:00 +17°C° 0.5 mm 2 mps 729 mmHg 94%
    22:00 +17°C° 0.5 mm 2 mps 729 mmHg 95%
    23:00 +16°C° 0.6 mm 2 mps 729 mmHg 96%

    8 June, Monday

    Time Temperature Precipitation Wind Pressure Humidity
    00:00 +16°C° 0.6 mm 2 mps 729 mmHg 97%
    01:00 +16°C° 0.6 mm 2 mps 729 mmHg 97%
    02:00 +16°C° 0.5 mm 2 mps 729 mmHg 98%
    03:00 +16°C° 0.5 mm 3 mps 729 mmHg 98%
    04:00 +14°C° 0.5 mm 3 mps 728 mmHg 98%
    05:00 +16°C° 0.1 mm 3 mps 729 mmHg 96%
    06:00 +17°C° 0.1 mm 2 mps 729 mmHg 94%
    07:00 +18°C° 0.1 mm 2 mps 729 mmHg 92%
    08:00 +19°C° 0.4 mm 2 mps 729 mmHg 88%
    09:00 +20°C° 0.4 mm 3 mps 729 mmHg 83%
    10:00 +21°C° 0.4 mm 3 mps 729 mmHg 79%
    11:00 +22°C° 1.1 mm 3 mps 729 mmHg 76%
    12:00 +24°C° 1.1 mm 2 mps 728 mmHg 74%
    13:00 +25°C° 1.1 mm 2 mps 728 mmHg 71%
    14:00 +24°C° 2.2 mm 2 mps 728 mmHg 75%
    15:00 +23°C° 2.2 mm 2 mps 728 mmHg 79%
    16:00 +23°C° 2.2 mm 2 mps 728 mmHg 83%
    17:00 +21°C° 0.4 mm 2 mps 728 mmHg 86%
    18:00 +20°C° 0.4 mm 2 mps 728 mmHg 89%
    19:00 +19°C° 0.4 mm 2 mps 728 mmHg 92%
    20:00 +18°C° 0.1 mm 2 mps 728 mmHg 93%
    21:00 +17°C° 0.1 mm 2 mps 729 mmHg 95%
    22:00 +17°C° 0.1 mm 3 mps 729 mmHg 97%
    23:00 +16°C° 0.2 mm 3 mps 729 mmHg 97%

    9 June, Tuesday

    Time Temperature Precipitation Wind Pressure Humidity
    00:00 +16°C° 0.2 mm 3 mps 729 mmHg 97%
    01:00 +16°C° 0.2 mm 3 mps 729 mmHg 97%
    02:00 +16°C° 0.1 mm 3 mps 729 mmHg 97%
    03:00 +16°C° 0.1 mm 3 mps 729 mmHg 97%
    04:00 +14°C° 0.1 mm 3 mps 729 mmHg 97%
    05:00 +16°C° 0 mm 3 mps 730 mmHg 95%
    06:00 +16°C° 0 mm 3 mps 730 mmHg 94%
    07:00 +16°C° 0 mm 3 mps 730 mmHg 93%
    08:00 +17°C° 0 mm 2 mps 731 mmHg 89%
    09:00 +17°C° 0 mm 2 mps 731 mmHg 86%
    10:00 +18°C° 0 mm 2 mps 731 mmHg 82%
    11:00 +19°C° 0 mm 2 mps 731 mmHg 79%
    12:00 +20°C° 0 mm 2 mps 731 mmHg 75%
    13:00 +21°C° 0 mm 2 mps 731 mmHg 71%
    14:00 +21°C° 0 mm 2 mps 731 mmHg 72%
    15:00 +21°C° 0 mm 2 mps 731 mmHg 73%
    16:00 +21°C° 0 mm 2 mps 731 mmHg 74%
    17:00 +20°C° 0 mm 2 mps 731 mmHg 78%
    18:00 +19°C° 0 mm 2 mps 731 mmHg 81%
    19:00 +20°C° 0 mm 1 mps 731 mmHg 85%
    20:00 +19°C° 0 mm 1 mps 731 mmHg 88%
    21:00 +18°C° 0 mm 1 mps 731 mmHg 90%
    22:00 +16°C° 0 mm 1 mps 731 mmHg 93%
    23:00 +16°C° 0 mm 1 mps 731 mmHg 94%
    Show more